Weather History for Grants-Milan, NM

Change the Weather History Date:

Wednesday, May 1, 2013

  Actual Average Record
Temperature  
Mean Temperature 62 °F -  
Max Temperature 77 °F 70 °F 86 °F (1992)
Min Temperature 45 °F 33 °F 15 °F (1970)
Degree Days  
Heating Degree Days 4    
Growing Degree Days 12 (Base 50)    
Moisture  
Dew Point 11 °F    
Average Humidity 13    
Maximum Humidity 24    
Minimum Humidity 7    
Precipitation  
Precipitation 0.00 in - - ()
Sea Level Pressure  
Sea Level Pressure 30.09 in    
Wind  
Wind Speed 11 mph (WNW)    
Max Wind Speed 26 mph    
Max Gust Speed 36 mph    
Visibility 10 miles    
Events      
Averages and records for this station are not official NWS values.
T = Trace of Precipitation, MM = Missing Value Source: NWS Daily Summary

Daily Weather History Graph

Daily Weather History Graph

Search for Another Location

Airport:

Trip Planner

Search our weather history database for the weather conditions in past years. The results will help you decide how hot, cold, wet, or windy it might be!

Date:

Astronomy

May. 01, 2013 Rise Set
Actual Time 6:20 AM MDT 7:57 PM MDT
Civil Twilight 5:53 AM MDT 8:24 PM MDT
Nautical Twilight 5:20 AM MDT 8:57 PM MDT
Astronomical Twilight 4:46 AM MDT 9:32 PM MDT
Moon 1:08 AM MDT (5/1) 12:01 PM MDT (5/1)
Length of Visible Light 14h 31m
Length of Day
13h 37m
Waning Gibbous, 58% of the Moon is Illuminated
May 1
Waning Gibbous
May 2
Last Quarter
May 9
New
May 17
First Quarter
May 24
Full

Hourly Weather History & Observations

Time (MDT) Temp. Windchill Dew Point Humidity Pressure Visibility Wind Dir Wind Speed Gust Speed Precip Events Conditions
12:15 AM 63.1 °F - 12.7 °F 14% 30.00 in 10.0 mi WNW 6.9 mph - N/A   Clear
12:35 AM 61.9 °F - 12.7 °F 15% 30.00 in 10.0 mi WNW 9.2 mph 17.3 mph N/A   Clear
12:55 AM 61.0 °F - 12.6 °F 15% 30.00 in 10.0 mi WNW 10.4 mph - N/A   Clear
1:15 AM 60.1 °F - 12.0 °F 15% 30.00 in 10.0 mi NW 6.9 mph - N/A   Clear
1:35 AM 59.0 °F - 12.2 °F 16% 30.00 in 10.0 mi WNW 5.8 mph - N/A   Clear
1:55 AM 57.0 °F - 12.4 °F 17% 30.00 in 10.0 mi Calm Calm - N/A   Clear
2:15 AM 55.4 °F - 12.4 °F 18% 30.00 in 10.0 mi NW 3.5 mph - N/A   Clear
2:35 AM 53.8 °F - 11.7 °F 19% 30.01 in 10.0 mi Calm Calm - N/A   Clear
2:55 AM 52.7 °F - 12.2 °F 20% 30.01 in 10.0 mi Calm Calm - N/A   Clear
3:15 AM 51.1 °F - 12.4 °F 21% 30.01 in 10.0 mi Calm Calm - N/A   Clear
3:35 AM 53.4 °F - 12.9 °F 20% 30.02 in 10.0 mi Calm Calm - N/A   Clear
3:55 AM 50.2 °F - 11.8 °F 22% 30.03 in 10.0 mi Calm Calm - N/A   Clear
4:15 AM 48.6 °F - 12.6 °F 24% 30.03 in 10.0 mi SE 6.9 mph - N/A   Clear
4:35 AM 49.3 °F - 13.3 °F 24% 30.04 in 10.0 mi NE 3.5 mph - N/A   Clear
4:55 AM 48.4 °F - 12.4 °F 24% 30.04 in 10.0 mi Calm Calm - N/A   Clear
5:15 AM 49.6 °F - 12.6 °F 23% 30.04 in 10.0 mi Calm Calm - N/A   Clear
5:35 AM 55.9 °F - 11.5 °F 17% 30.04 in 10.0 mi SW 3.5 mph - N/A   Clear
5:55 AM 58.8 °F - 9.7 °F 14% 30.04 in 10.0 mi West 8.1 mph - N/A   Clear
6:15 AM 55.8 °F - 11.8 °F 18% 30.04 in 10.0 mi North 5.8 mph - N/A   Clear
6:35 AM 55.6 °F - 11.1 °F 17% 30.05 in 10.0 mi Calm Calm - N/A   Clear
6:55 AM 60.6 °F - 8.6 °F 13% 30.05 in 10.0 mi WSW 9.2 mph - N/A   Clear
7:15 AM 60.3 °F - 9.9 °F 14% 30.05 in 10.0 mi West 15.0 mph 20.7 mph N/A   Clear
7:35 AM 60.8 °F - 9.5 °F 13% 30.04 in 10.0 mi West 19.6 mph 26.5 mph N/A   Clear
7:55 AM 62.4 °F - 9.3 °F 12% 30.05 in 10.0 mi West 23.0 mph 35.7 mph N/A   Clear
8:15 AM 63.9 °F - 11.3 °F 13% 30.06 in 10.0 mi West 16.1 mph 34.5 mph N/A   Clear
8:35 AM 63.7 °F - 15.1 °F 15% 30.07 in 10.0 mi West 21.9 mph 33.4 mph N/A   Clear
8:55 AM 64.8 °F - 14.7 °F 14% 30.08 in 10.0 mi West 21.9 mph 28.8 mph N/A   Clear
9:15 AM 65.7 °F - 12.6 °F 13% 30.09 in 10.0 mi WNW 19.6 mph 35.7 mph N/A   Clear
9:35 AM 66.9 °F - 11.3 °F 12% 30.09 in 10.0 mi WNW 19.6 mph 29.9 mph N/A   Clear
9:55 AM 68.0 °F - 12.0 °F 11% 30.09 in 10.0 mi WNW 19.6 mph 29.9 mph N/A   Clear
10:15 AM 68.7 °F - 12.7 °F 12% 30.09 in 10.0 mi West 17.3 mph 28.8 mph N/A   Clear
10:35 AM 68.9 °F - 13.5 °F 12% 30.10 in 10.0 mi West 24.2 mph 34.5 mph N/A   Clear
10:55 AM 69.8 °F - 13.1 °F 11% 30.10 in 10.0 mi West 26.5 mph 31.1 mph N/A   Clear
11:15 AM 70.7 °F - 13.5 °F 11% 30.10 in 10.0 mi West 21.9 mph 33.4 mph N/A   Clear
11:35 AM 71.1 °F - 13.5 °F 11% 30.10 in 10.0 mi West 16.1 mph 27.6 mph N/A   Clear
11:55 AM 72.5 °F - 13.8 °F 11% 30.11 in 10.0 mi West 15.0 mph 23.0 mph N/A   Clear
12:15 PM 73.0 °F - 13.5 °F 10% 30.10 in 10.0 mi West 10.4 mph 27.6 mph N/A   Clear
12:35 PM 73.6 °F - 13.6 °F 10% 30.09 in 10.0 mi WNW 9.2 mph 24.2 mph N/A   Clear
12:55 PM 75.2 °F - 11.8 °F 9% 30.08 in 10.0 mi WSW 11.5 mph 23.0 mph N/A   Clear
1:15 PM 74.8 °F - 12.7 °F 9% 30.08 in 10.0 mi West 20.7 mph 28.8 mph N/A   Clear
1:35 PM 75.9 °F - 13.3 °F 9% 30.08 in 10.0 mi West 20.7 mph 28.8 mph N/A   Clear
1:55 PM 74.8 °F - 14.0 °F 10% 30.08 in 10.0 mi West 15.0 mph 24.2 mph N/A   Clear
2:15 PM 75.9 °F - 14.9 °F 10% 30.08 in 10.0 mi West 17.3 mph 28.8 mph N/A   Clear
2:35 PM 76.8 °F - 14.9 °F 10% 30.08 in 10.0 mi West 15.0 mph 26.5 mph N/A   Clear
2:55 PM 76.3 °F - 14.9 °F 10% 30.08 in 10.0 mi WNW 19.6 mph 26.5 mph N/A   Clear
3:15 PM 77.2 °F - 16.3 °F 10% 30.08 in 10.0 mi WNW 15.0 mph 26.5 mph N/A   Clear
3:35 PM 76.3 °F - 15.8 °F 10% 30.07 in 10.0 mi SW 21.9 mph 34.5 mph N/A   Scattered Clouds
3:55 PM 77.0 °F - 15.8 °F 10% 30.07 in 10.0 mi West 18.4 mph 25.3 mph N/A   Scattered Clouds
4:15 PM 77.2 °F - 15.6 °F 10% 30.06 in 10.0 mi NW 12.7 mph 26.5 mph N/A   Clear
4:35 PM 77.5 °F - 16.0 °F 10% 30.06 in 10.0 mi NW 21.9 mph 31.1 mph N/A   Clear
4:55 PM 76.6 °F - 16.5 °F 10% 30.07 in 10.0 mi West 20.7 mph 27.6 mph N/A   Scattered Clouds
5:15 PM 75.7 °F - 18.0 °F 11% 30.07 in 10.0 mi WNW 18.4 mph 24.2 mph N/A   Scattered Clouds
5:35 PM 75.4 °F - 19.6 °F 12% 30.08 in 10.0 mi WNW 15.0 mph 26.5 mph N/A   Clear
5:55 PM 75.0 °F - 20.3 °F 13% 30.08 in 10.0 mi WNW 19.6 mph 28.8 mph N/A   Scattered Clouds
6:15 PM 74.7 °F - 20.3 °F 13% 30.09 in 10.0 mi West 23.0 mph 31.1 mph N/A   Scattered Clouds
6:35 PM 73.0 °F - 19.2 °F 13% 30.10 in 10.0 mi WNW 13.8 mph 26.5 mph N/A   Scattered Clouds
6:55 PM 72.3 °F - 17.2 °F 12% 30.11 in 10.0 mi West 17.3 mph 29.9 mph N/A   Clear
7:15 PM 71.1 °F - 16.2 °F 12% 30.11 in 10.0 mi WNW 18.4 mph 26.5 mph N/A   Clear
7:35 PM 69.8 °F - 15.6 °F 13% 30.12 in 10.0 mi WNW 19.6 mph 24.2 mph N/A   Clear
7:55 PM 64.8 °F - 8.2 °F 11% 30.15 in 7.0 mi NNW 13.8 mph - N/A   Clear
8:15 PM 61.3 °F - -1.3 °F 8% 30.18 in 5.0 mi North 20.7 mph 27.6 mph N/A   Haze
8:35 PM 58.5 °F - -5.6 °F 7% 30.20 in 5.0 mi North 19.6 mph 28.8 mph N/A   Haze
8:55 PM 57.0 °F - -6.5 °F 7% 30.21 in 5.0 mi NNW 23.0 mph 28.8 mph N/A   Haze
9:35 PM 54.1 °F - -6.3 °F 8% 30.24 in 7.0 mi NNW 20.7 mph 28.8 mph N/A   Overcast
9:55 PM 51.8 °F - -6.3 °F 9% 30.26 in 7.0 mi NNW 17.3 mph 20.7 mph N/A   Overcast
10:15 PM 50.9 °F - -6.2 °F 9% 30.26 in 10.0 mi NNW 13.8 mph - N/A   Mostly Cloudy
10:35 PM 49.1 °F - -6.5 °F 10% 30.27 in 10.0 mi NNW 11.5 mph - N/A   Scattered Clouds
10:55 PM 48.4 °F - -6.3 °F 10% 30.28 in 10.0 mi NNW 12.7 mph - N/A   Clear
11:15 PM 47.1 °F - -6.7 °F 10% 30.28 in 10.0 mi NNW 12.7 mph - N/A   Clear
11:35 PM 46.0 °F 39.3 °F -6.7 °F 11% 30.29 in 10.0 mi NNW 16.1 mph - N/A   Clear
11:55 PM 45.5 °F 39.6 °F -6.5 °F 11% 30.30 in 10.0 mi NW 12.7 mph - N/A   Clear